TimeCDT,TemperatureF,Dew PointF,Humidity,Sea Level PressureIn,VisibilityMPH,Wind Direction,Wind SpeedMPH,Gust SpeedMPH,PrecipitationIn,Events,Conditions,WindDirDegrees,DateUTC
12:53 AM,75.0,71.1,87,29.91,10.0,SSW,5.8,-,N/A,,Clear,210,2013-07-20 05:53:00
1:53 AM,73.9,71.1,91,29.92,10.0,South,5.8,-,N/A,,Clear,190,2013-07-20 06:53:00
2:53 AM,73.9,70.0,87,29.91,10.0,SSW,6.9,-,N/A,,Clear,200,2013-07-20 07:53:00
3:53 AM,73.0,70.0,90,29.90,10.0,SSW,4.6,-,N/A,,Clear,200,2013-07-20 08:53:00
4:53 AM,72.0,69.1,91,29.90,10.0,South,3.5,-,N/A,,Clear,190,2013-07-20 09:53:00
5:53 AM,71.1,69.1,93,29.91,10.0,South,3.5,-,N/A,,Clear,190,2013-07-20 10:53:00
6:53 AM,72.0,69.1,91,29.90,10.0,South,3.5,-,N/A,,Clear,170,2013-07-20 11:53:00
7:53 AM,75.9,71.1,85,29.89,10.0,South,3.5,-,N/A,,Clear,180,2013-07-20 12:53:00
8:53 AM,81.0,72.0,74,29.89,10.0,SW,5.8,-,N/A,,Clear,230,2013-07-20 13:53:00
9:53 AM,86.0,72.0,63,29.90,10.0,SW,5.8,-,N/A,,Clear,230,2013-07-20 14:53:00
10:53 AM,89.1,70.0,53,29.90,10.0,SW,4.6,-,N/A,,Clear,220,2013-07-20 15:53:00
11:53 AM,91.0,71.1,52,29.90,10.0,West,5.8,-,N/A,,Clear,260,2013-07-20 16:53:00
12:53 PM,93.0,70.0,47,29.88,10.0,Variable,3.5,-,N/A,,Clear,0,2013-07-20 17:53:00
1:53 PM,95.0,71.1,46,29.86,10.0,SSW,8.1,-,N/A,,Clear,200,2013-07-20 18:53:00
2:53 PM,95.0,69.1,43,29.84,10.0,SSE,10.4,-,N/A,,Clear,150,2013-07-20 19:53:00
3:53 PM,95.0,70.0,44,29.81,10.0,South,11.5,17.3,N/A,,Partly Cloudy,180,2013-07-20 20:53:00
4:53 PM,95.0,69.1,43,29.80,10.0,SSW,15.0,-,N/A,,Partly Cloudy,200,2013-07-20 21:53:00
5:53 PM,93.9,68.0,43,29.79,10.0,SSW,12.7,19.6,N/A,,Clear,200,2013-07-20 22:53:00
6:53 PM,90.0,69.1,50,29.79,10.0,South,11.5,-,N/A,,Clear,180,2013-07-20 23:53:00
7:53 PM,89.1,70.0,53,29.79,10.0,South,9.2,-,N/A,,Clear,170,2013-07-21 00:53:00
8:53 PM,84.9,70.0,61,29.80,10.0,SSE,6.9,-,N/A,,Clear,160,2013-07-21 01:53:00
9:53 PM,84.9,70.0,61,29.81,10.0,SSE,9.2,-,N/A,,Clear,150,2013-07-21 02:53:00
10:53 PM,84.0,70.0,63,29.82,10.0,SSE,11.5,-,N/A,,Clear,160,2013-07-21 03:53:00
11:53 PM,82.9,70.0,65,29.81,10.0,South,9.2,-,N/A,,Scattered Clouds,190,2013-07-21 04:53:00